This is the latest recevied weather packets stored in our database for station/object N9OJR. If no packets are shown the sender has not sent any weather packets the latest 10 day(s).
| Time | Temp. | Humidity | Pressure | Rain* | Wind** | Luminosity | Snow |
|---|---|---|---|---|---|---|---|
| 1777984720 | 16.11° C | 78% | 1003.3 hPa | 0 mm | - | 52 W/m² | - |
| 1777984417 | 16.11° C | 78% | 1003.2 hPa | 0 mm | - | 58 W/m² | - |
| 1777984112 | 16.11° C | 78% | 1003.2 hPa | 0 mm | - | 58 W/m² | - |
| 1777983810 | 16.11° C | 78% | 1002.9 hPa | 0 mm | - | 48 W/m² | - |
| 1777983507 | 16.11° C | 78% | 1003.1 hPa | 0 mm | - | 47 W/m² | - |
| 1777983204 | 16.11° C | 78% | 1002.9 hPa | 0 mm | - | 49 W/m² | - |
| 1777982900 | 16.11° C | 78% | 1002.8 hPa | 0 mm | - | 49 W/m² | - |
| 1777982596 | 15.56° C | 78% | 1002.8 hPa | 0 mm | - | 39 W/m² | - |
| 1777982294 | 15.56° C | 78% | 1002.7 hPa | 0 mm | - | 27 W/m² | - |
| 1777981992 | 15.56° C | 78% | 1002.7 hPa | 0 mm | - | 32 W/m² | - |
| 1777981690 | 15.56° C | 79% | 1003 hPa | 0 mm | - | 26 W/m² | - |
| 1777981386 | 15.56° C | 78% | 1003 hPa | 0 mm | - | 16 W/m² | - |
| 1777981083 | 16.11° C | 78% | 1002.8 hPa | 0 mm | - | 10 W/m² | - |
| 1777980779 | 16.11° C | 77% | 1003 hPa | 0 mm | - | 8 W/m² | - |
| 1777980475 | 16.11° C | 77% | 1003 hPa | 0 mm | - | 15 W/m² | - |
| 1777980172 | 16.11° C | 77% | 1002.8 hPa | 0 mm | - | 19 W/m² | - |
| 1777979867 | 16.11° C | 76% | 1002.8 hPa | 0 mm | - | 16 W/m² | - |
| 1777979563 | 16.11° C | 76% | 1002.8 hPa | 0 mm | - | 13 W/m² | - |
| 1777979259 | 16.11° C | 77% | 1002.9 hPa | 0 mm | - | 12 W/m² | - |
| 1777978957 | 16.11° C | 77% | 1002.7 hPa | 0 mm | - | 13 W/m² | - |
| 1777978653 | 16.11° C | 78% | 1002.8 hPa | 0 mm | - | 10 W/m² | - |
| 1777978349 | 16.11° C | 78% | 1002.8 hPa | 0 mm | - | 10 W/m² | - |
| 1777978046 | 16.11° C | 78% | 1002.8 hPa | 0 mm | - | 7 W/m² | - |
| 1777977743 | 16.11° C | 78% | 1002.7 hPa | 0 mm | - | 3 W/m² | - |
| 1777977439 | 16.11° C | 77% | 1002.7 hPa | 0 mm | - | 3 W/m² | - |
* Rain latest hour (hover to see other rain measurements)
** Current wind speed in m/s (hover to see current wind gust speed)